Location: Baia Mare
(47.6567°N, 23.5850°E)
Time: 14:39:08
(UTC+02:00)

ISS - Pass Details

Date: 28 December 2018
Orbit: 401 x 408 km, 51.6° (Epoch: 16 December)

Event Time Altitude Azimuth Distance (km) Brightness Sun altitude
Exits shadow 06:06:45 42° 186° (S) 593 -3.0 -20.3°
Maximum altitude 06:07:22 49° 149° (SSE) 532 -3.0 -20.2°
Drops below altitude 10° 06:10:33 10° 73° (ENE) 1,466 -0.2 -19.7°
Sets 06:12:40 0° 68° (ENE) 2,328 0.9 -19.3°
